RH
9 10 11 11 12 11 11 11 12 14 16 17 17 16 16 18 19 19 20 22 24 22 20 26 43 64 83 95 100 100 96 91 90 94 99 100 100 98 93 77 55 40
12 14 15 15 15 15 15 15 14 13 14 15 16 17 17 19 23 26 25 25 27 29 28 25 27 43 62 78 92 100 101 96 92 92 97 99 100 99 94 82 62 47
18 18 19 20 20 21 21 22 20 18 17 17 18 20 20 22 26 30 34 35 35 34 34 32 28 31 44 60 77 91 99 100 96 93 94 98 101 100 97 86 67 53
22 20 19 19 19 19 18 18 18 17 16 15 16 18 20 22 28 34 39 44 47 46 42 40 37 33 35 48 65 80 93 100 100 96 93 95 100 100 99 92 74 58
17 15 12 11 11 10 9 8 8 8 7 7 8 9 11 18 26 33 40 47 52 56 54 49 45 40 35 40 53 70 87 98 101 100 95 93 98 100 100 96 80 64
9 8 6 6 6 5 5 5 5 5 5 5 6 5 6 13 22 28 38 51 56 59 64 63 57 51 44 39 43 60 81 94 99 100 97 94 97 99 100 98 85 70
5 5 5 5 5 5 6 5 5 6 5 5 6 6 5 10 25 40 47 54 60 62 66 72 72 68 62 51 43 54 78 94 99 100 98 95 98 98 99 100 90 75
5 5 6 6 6 7 6 5 6 6 6 7 6 7 6 5 20 48 64 63 64 68 70 73 78 81 81 73 60 57 75 94 100 101 99 97 98 98 97 99 94 80
7 7 7 7 7 6 6 7 6 5 9 13 12 9 7 4 7 31 64 79 74 73 77 79 81 86 91 90 81 72 78 93 99 100 101 98 98 99 96 98 97 84
8 8 8 7 6 6 6 4 5 17 38 52 53 40 19 7 4 9 36 70 84 82 84 88 88 92 96 96 96 92 89 96 99 99 101 100 98 100 97 97 99 89
8 8 7 6 6 5 6 10 19 40 66 81 85 70 39 18 12 6 8 38 76 89 89 95 97 98 101 100 100 101 99 99 100 99 101 100 99 102 100 98 100 95
7 7 6 5 6 6 7 15 24 37 54 66 69 62 48 29 16 10 3 15 57 88 93 99 103 100 101 102 101 101 100 100 100 99 101 101 100 102 101 99 101 98
7 6 6 5 6 6 6 8 11 20 33 44 50 53 51 38 19 12 7 7 42 85 98 98 102 100 99 101 101 101 100 100 100 100 101 101 101 102 101 100 100 100
6 6 6 5 5 5 6 5 5 11 16 21 40 56 54 39 22 14 8 3 26 71 97 100 100 101 100 99 101 101 100 100 100 100 101 101 101 101 100 100 100 101
6 6 5 5 6 5 6 7 5 7 7 9 27 42 36 26 18 12 9 5 13 43 80 101 102 99 100 100 100 101 100 100 100 100 101 102 101 100 100 100 100 100
5 6 5 5 6 5 6 7 5 6 6 5 9 13 11 11 12 10 8 7 10 23 53 90 104 99 99 101 100 100 100 100 100 100 100 103 102 99 100 101 101 100
6 6 6 5 6 6 6 6 6 6 6 5 6 5 5 6 6 8 7 6 14 20 35 74 103 101 98 101 100 100 100 99 100 100 101 103 101 99 100 102 102 102
6 6 6 6 6 6 6 6 6 6 5 6 6 5 5 6 4 6 6 4 13 19 29 66 100 102 98 101 100 99 101 99 99 100 101 102 100 99 101 102 102 102
7 7 6 6 7 6 6 6 6 6 6 6 6 5 5 6 4 5 6 5 9 16 33 69 99 102 99 101 100 99 100 99 99 100 101 102 101 101 103 102 101 101
7 7 7 6 7 6 6 6 6 6 6 5 6 6 5 5 5 5 5 6 9 20 46 80 100 100 99 101 100 99 100 99 100 99 99 101 103 103 103 102 101 101
7 7 7 6 7 7 6 7 6 6 7 6 6 6 6 5 5 5 5 6 11 32 64 92 101 100 100 100 99 100 100 100 100 98 94 95 99 102 103 102 101 100
7 7 7 7 7 7 7 7 7 6 6 7 6 6 6 5 5 6 6 7 19 51 85 100 100 100 100 100 99 100 100 100 101 98 92 91 94 98 102 102 101 100
8 8 8 8 8 8 8 7 7 7 7 7 6 6 6 6 6 7 11 21 44 76 99 103 100 100 100 99 100 100 99 101 101 98 94 92 94 97 101 102 101 100
9 9 10 10 9 9 9 8 7 8 7 7 8 7 5 7 9 12 23 48 77 95 101 100 100 100 99 100 100 99 100 101 100 99 96 94 95 99 102 103 101 100
11 12 12 12 11 10 10 9 8 8 9 10 12 11 10 15 21 26 43 73 95 101 99 100 100 99 99 100 100 99 101 100 100 100 99 97 98 100 101 102 102 101
13 14 14 13 13 11 10 10 11 12 14 17 20 22 25 32 41 53 72 92 100 100 100 100 100 99 100 100 100 100 100 100 100 100 100 100 101 101 101 100 101 101
Wind_Speed
47 48 49 51 52 52 52 50 48 46 47 48 50 51 51 51 51 53 53 52 50 48 47 49 51 52 53 54 54 56 58 59 57 53 47 43 42 43 44 43 42 42
49 48 49 51 52 53 55 56 55 53 52 52 53 54 54 53 53 53 54 54 53 51 49 49 50 52 53 54 54 54 56 59 58 55 50 44 41 42 43 43 43 43
52 52 52 53 54 55 57 58 59 58 56 55 55 56 56 55 54 53 53 54 54 54 52 51 51 52 52 53 53 53 54 57 59 57 52 47 42 41 42 43 43 43
55 56 56 56 56 56 56 58 58 58 57 55 54 54 55 55 54 53 53 53 54 54 54 53 52 52 52 52 52 51 52 54 57 58 55 50 44 40 41 42 44 44
55 56 57 56 57 57 57 57 58 58 58 57 54 53 54 54 54 53 52 53 54 54 54 54 54 53 53 53 52 51 51 52 55 58 56 52 46 41 40 42 44 44
55 57 57 57 57 58 59 60 60 61 61 60 58 55 53 53 54 54 53 53 53 54 55 55 55 54 53 53 53 51 50 51 53 56 57 54 48 42 40 42 43 44
56 57 58 60 60 60 61 62 62 62 63 62 61 57 54 52 52 54 55 55 54 54 55 55 55 55 53 53 53 52 51 50 51 55 57 55 50 45 42 42 43 44
58 60 60 62 62 62 62 62 62 62 62 63 62 59 55 52 50 50 53 55 55 54 54 54 54 54 53 53 53 52 51 50 51 53 56 55 50 46 43 42 43 43
60 61 62 62 62 62 62 61 61 61 61 61 61 60 57 53 51 50 50 53 55 54 53 53 53 53 52 52 52 52 51 51 51 53 55 54 50 46 43 43 44 43
61 62 62 62 62 61 61 61 60 58 56 56 58 59 59 56 54 52 50 52 54 54 53 52 52 51 51 50 50 50 50 50 52 53 54 52 49 45 43 43 44 43
63 63 62 62 61 60 60 58 54 51 50 52 55 59 60 59 58 55 52 51 53 53 52 52 51 49 49 48 48 48 49 49 51 54 54 52 48 45 42 42 44 44
63 63 62 61 60 59 57 54 51 49 49 51 55 58 59 61 61 59 54 51 51 53 51 50 50 48 47 46 46 47 48 49 51 53 53 51 47 44 42 41 43 44
64 63 62 61 60 58 56 54 52 51 51 52 55 57 59 62 63 60 56 50 49 51 51 49 49 48 46 44 45 47 47 49 50 51 51 50 46 43 41 40 42 43
64 63 62 61 60 57 55 53 52 51 52 53 55 57 60 63 63 61 57 51 48 49 50 48 48 47 46 44 44 45 47 48 48 48 49 48 44 41 40 39 40 42
65 64 63 61 59 56 54 53 52 52 52 53 54 57 60 63 64 62 59 53 49 48 48 48 48 47 45 43 43 44 45 46 45 45 47 47 43 40 39 37 38 41
65 65 64 62 60 58 55 54 53 53 54 54 54 56 59 61 62 62 60 54 51 49 47 46 47 47 44 42 42 42 43 42 42 44 46 45 41 39 37 36 37 39
65 64 64 63 62 60 59 57 55 55 55 55 55 56 57 58 59 60 58 54 51 51 48 45 45 46 44 42 41 40 40 39 40 42 44 42 39 38 36 35 36 38
65 65 65 65 64 63 62 61 58 57 56 55 55 55 56 57 58 57 56 52 50 50 48 45 44 44 44 41 39 38 38 38 39 41 42 40 38 37 34 34 35 37
66 66 66 65 64 64 63 62 61 59 57 56 55 54 54 54 55 54 53 50 49 48 46 44 43 43 42 39 37 36 35 37 40 42 41 39 38 35 34 34 35 36
66 66 65 65 64 64 63 62 61 59 57 56 55 55 54 53 52 51 49 48 47 45 44 43 43 43 41 37 36 34 33 37 41 43 42 39 36 34 34 34 34 35
67 66 66 65 65 64 62 61 60 58 56 56 55 54 53 52 50 48 47 46 44 42 41 41 42 41 38 35 34 33 33 37 42 44 43 39 35 33 33 33 33 34
66 66 66 65 64 64 62 61 59 57 55 55 54 53 51 50 48 46 45 44 42 39 39 40 40 38 35 33 32 32 34 39 42 44 44 40 35 31 31 31 31 33
65 65 65 64 64 64 62 61 60 58 56 55 53 51 49 48 45 43 42 41 39 37 37 37 36 34 32 31 31 32 36 40 42 43 43 41 35 29 29 30 30 31
64 64 65 64 64 63 62 61 59 58 56 55 53 50 47 45 42 40 39 38 37 36 34 33 32 30 29 29 30 32 37 40 41 41 42 40 33 28 28 29 29 29
64 64 64 64 64 63 62 61 60 58 56 54 52 49 45 42 40 38 37 35 34 34 32 29 28 27 26 27 29 33 38 40 40 41 40 37 31 27 27 29 29 28
64 64 64 64 63 63 62 61 60 58 56 53 49 46 43 40 38 36 35 33 31 30 29 26 24 24 23 25 29 35 37 38 40 40 37 32 28 27 27 28 28 27
Wind_Direction
321 320 319 317 315 313 312 311 310 310 311 312 311 311 310 309 308 307 306 306 305 304 300 295 292 288 286 287 286 280 273 269 267 265 266 269 271 271 271 268 263 261
320 319 317 316 314 315 315 315 313 313 312 312 311 310 309 308 306 304 303 303 302 302 300 296 294 290 287 287 287 285 278 270 266 264 262 265 268 268 267 266 262 259
319 319 319 319 319 318 318 317 315 314 313 311 310 309 308 307 305 303 301 299 298 298 297 296 294 292 290 288 287 287 283 274 267 263 261 261 264 265 263 262 260 257
321 321 321 320 320 319 317 315 313 312 311 310 309 308 307 306 305 303 301 298 296 294 294 294 293 292 291 289 288 287 286 280 270 263 260 260 262 263 261 259 258 255
321 319 318 318 317 315 313 312 311 310 310 309 308 307 305 304 302 301 300 298 296 294 292 291 290 290 290 289 289 287 286 283 274 265 260 259 260 262 260 256 255 254
317 316 315 315 314 313 312 311 311 310 309 308 307 306 304 302 301 300 299 297 295 294 293 291 290 289 288 287 288 287 285 283 278 268 261 258 258 261 260 254 252 251
315 315 314 314 313 312 311 310 309 309 307 306 306 304 302 300 298 298 298 297 296 295 294 293 292 290 289 287 286 286 284 282 278 271 263 258 256 259 261 255 249 249
314 314 313 313 312 311 310 309 307 306 305 304 303 302 300 298 296 296 295 296 296 295 293 293 293 292 290 288 285 284 283 281 277 270 263 258 255 257 261 257 249 246
313 312 311 311 310 309 308 307 306 305 303 303 302 301 300 299 297 295 294 294 294 294 293 292 292 292 291 289 286 283 282 280 276 270 262 257 254 255 259 259 251 245
313 312 311 310 309 308 307 306 305 304 302 301 300 299 299 299 297 296 294 293 293 293 293 292 291 291 290 289 286 283 281 278 275 270 262 255 252 253 257 259 253 246
314 313 311 310 309 308 306 305 304 301 297 295 293 293 296 297 296 295 294 293 293 292 292 292 292 291 290 289 287 283 280 276 273 268 261 253 250 251 255 257 254 248
314 312 311 310 309 308 306 305 303 299 295 292 291 291 292 294 294 295 295 293 291 290 291 292 292 290 289 288 286 283 279 276 272 266 259 252 248 250 255 256 254 249
314 313 312 311 310 309 308 306 302 298 294 292 291 290 290 292 293 295 295 293 290 289 290 291 291 290 288 286 284 281 279 275 271 264 256 250 247 250 255 256 253 249
314 313 313 312 312 311 309 306 302 298 294 291 290 288 288 290 292 294 294 293 290 288 289 290 290 289 287 284 282 280 279 275 270 264 255 247 246 250 255 255 253 249
315 314 314 313 312 311 308 305 302 298 295 292 288 286 285 287 290 292 294 294 291 288 288 289 289 289 286 283 281 280 278 275 269 262 252 245 245 250 254 254 252 250
316 315 314 313 312 310 309 307 304 301 297 294 290 287 286 286 288 291 293 295 293 290 288 287 288 288 286 282 279 279 278 273 266 257 248 243 246 251 252 251 251 249
316 315 314 313 312 311 310 308 306 303 300 298 295 292 290 289 289 290 292 293 292 290 288 286 286 286 285 281 278 277 275 269 261 251 244 243 248 251 251 250 249 248
317 316 315 314 313 312 311 309 308 306 303 300 297 294 292 290 289 290 291 291 289 287 286 285 284 285 283 279 275 274 271 265 254 244 241 244 248 250 251 251 249 247
317 316 315 314 313 313 312 310 309 307 305 302 299 296 293 291 289 289 290 289 288 286 285 284 284 283 281 276 272 269 263 256 248 240 238 244 248 249 250 249 249 248
318 316 316 315 314 314 313 311 310 308 306 304 301 298 296 293 291 290 289 288 287 285 284 283 283 282 278 271 267 263 253 245 243 241 240 242 245 247 248 248 247 247
319 318 318 317 316 315 314 313 311 309 307 305 302 300 297 295 293 292 290 288 287 285 283 282 282 280 274 267 262 256 244 235 238 243 244 244 242 244 246 247 247 246
320 319 319 318 317 317 316 315 313 311 308 306 303 301 298 296 294 292 290 289 288 286 284 283 281 277 271 264 258 248 235 229 234 241 246 247 244 242 244 246 246 245
321 321 320 320 319 319 318 316 314 312 310 308 305 302 299 297 295 292 291 290 288 286 285 283 280 274 267 262 254 240 228 227 234 240 245 248 246 244 244 244 243 243
323 323 322 322 321 320 318 317 314 313 311 309 307 304 301 298 295 293 291 290 288 287 285 282 277 271 265 259 248 232 224 227 235 241 245 248 248 245 242 242 241 240
325 325 324 323 322 321 319 317 315 313 312 310 308 306 303 300 297 295 292 290 288 287 285 280 274 268 262 254 241 226 222 228 236 241 245 248 249 246 242 240 239 237
327 326 325 324 323 321 320 318 316 315 313 311 308 305 302 299 297 295 293 291 289 286 282 278 273 266 257 247 234 224 223 231 238 241 243 246 248 246 242 239 238 235